Flag for Germany Weather past 2 weeks in Straubing, Bavaria, Germany

Now
60 °F

Overcast.


Feels Like: 60 °F
Forecast: 48 / 66 °F
Wind: 3 mph from Northwest

Location: Straubing

Current Time: Sep 1, 2014 at 2:16:36 PM

Latest Report: Sep 1, 2014 at 1:00 PM


Visibility: 19 mi

Pressure: 30.06 "Hg

Humidity: 75%

Dew point: 52 °F

Location of StraubingLocation

Historic Weather in Straubing — Graph

°F

Straubing temperature yesterday

Maximum temperature yesterday: 61 °F (at 4:00 PM)
Minimum temperature yesterday: 53 °F (at 2:00 AM)
Average temperature yesterday: 57 °F

Past Weeks' High & Low Weather Summary

 TemperatureHumidityPressure
High73 °F (Aug 30, 3:00 PM)99% (Aug 28, 2:00 AM)30.17 "Hg (Aug 28, 2:00 AM)
Low41 °F (Aug 25, 6:00 AM)31% (Aug 21, 6:00 PM)29.70 "Hg (Aug 26, 3:00 PM)
Average59 °F75%29.99 "Hg
* Reported Aug 17 1:00 PM — Sep 1 1:00 PM, Straubing, Weather by CustomWeather, © 2014

Note: Actual official high and low records may vary slightly from our data, if they occured in-between our weather recording intervals... More about our weather records

Advertising

Straubing weather history for previous 24 hours

 ConditionsComfort  
Time TempWeatherWind HumidityBarometerVisibility
1:00 PM
Sep 1
60 °FOvercast.3 mph75%30.06 "Hg19 mi
12:00 PM57 °FOvercast.5 mph80%30.07 "Hg17 mi
11:00 AM57 °FOvercast.3 mph82%30.06 "Hg19 mi
10:00 AM56 °FOvercast.5 mph84%30.05 "Hg17 mi
9:00 AM54 °FOvercast.3 mph89%30.03 "Hg9 mi
8:00 AM53 °FOvercast.2 mph92%30.03 "Hg7 mi
7:00 AM53 °FOvercast.3 mph92%30.01 "Hg7 mi
6:00 AM54 °FLight freezing rain. Overcast.3 mph94%30.00 "Hg5 mi
4:00 AM54 °FLow clouds.3 mph94%29.98 "Hg7 mi
3:00 AM54 °FOvercast.2 mph96%29.97 "Hg6 mi
2:00 AM54 °FOvercast.2 mph94%29.98 "Hg7 mi
1:00 AM53 °FDrizzle. Low clouds.2 mph95%29.98 "Hg6 mi
12:00 AM54 °FDrizzle. Low clouds.1 mph92%29.98 "Hg13 mi
10:00 PM
Aug 31
54 °FLight freezing rain. Overcast.1 mph94%29.99 "Hg19 mi
9:00 PM54 °FOvercast.2 mph93%29.98 "Hg43 mi
8:00 PM54 °FLight rain. Overcast.3 mph91%29.96 "Hg12 mi
7:00 PM57 °FLight rain. Overcast.3 mph94%29.95 "Hg10 mi
6:00 PM58 °FLight rain. Light fog.3 mph90%29.94 "Hg6 mi
4:00 PM61 °FLight rain. Overcast.2 mph78%29.93 "Hg31 mi
3:00 PM61 °FLight rain. Overcast.3 mph79%29.95 "Hg19 mi
2:00 PM61 °FDrizzle. Overcast.2 mph79%29.96 "Hg28 mi
Weather by CustomWeather, © 2014

See weather overviewHow to use our weather pages